History for Miami, FL

Friday, December 21, 2012 — View Current Conditions

Jump to Data:

Date:
Airport Code:
Recently Viewed Airport Codes: KMIA
Daily Summary
  Actual Average Record
Temperature
Mean Temperature 63°F 70°F  
Max Temperature 72°F 77°F 85°F (1948)
Min Temperature 53°F 62°F 37°F (1935)
Degree Days
Heating Degree Days 2 1  
Month to date heating degree days 2 17  
Since 1 July heating degree days 3 20  
Cooling Degree Days 0 6  
Month to date cooling degree days 202 146  
Year to date cooling degree days 4642 4518  
Growing Degree Days 13 (Base 50)    
Moisture
Dew Point 52°F    
Average Humidity 66    
Maximum Humidity 97    
Minimum Humidity 34    
Precipitation
Precipitation T in 0.07 in 3.15 in (1994)
Month to date precipitation 0.51 1.45  
Year to date precipitation 86.94 61.31  
Snow
Snow 0.00 in in in ()
Month to date snowfall 0.0  
Since 1 July snowfall 0.0  
Snow Depth 0.00 in    
Sea Level Pressure
Sea Level Pressure 30.07 in    
Wind
Wind Speed 9 mph (WNW)    
Max Wind Speed 18 mph    
Max Gust Speed 29 mph    
Visibility 10 miles    
Events Rain    
T = Trace of Precipitation, MM = Missing Value Source: NWS Daily Summary

Show full METARS

(help) - Comma Delimited File

Hourly Observations

Time(EST) Temperature Dew Point Humidity Sea Level Pressure Visibility Wind Direction Wind Speed Gust Speed Precipitation Events Conditions
12:53 AM 71.1°F 66.0°F 84% 30.03 in 10.0 miles SW 4.6 mph - N/A   Clear
1:53 AM 70.0°F 66.0°F 87% 30.02 in 10.0 miles Calm Calm - N/A   Clear
2:53 AM 69.1°F 66.0°F 90% 30.00 in 10.0 miles SSW 3.5 mph - N/A   Clear
3:53 AM 69.1°F 66.0°F 90% 30.00 in 10.0 miles SW 3.5 mph - N/A   Clear
4:53 AM 69.1°F 66.9°F 93% 29.99 in 9.0 miles SSW 4.6 mph - N/A   Partly Cloudy
5:53 AM 70.0°F 68.0°F 93% 29.99 in 10.0 miles SW 4.6 mph - N/A   Scattered Clouds
6:53 AM 72.0°F 70.0°F 93% 30.01 in 9.0 miles WSW 8.1 mph - N/A   Mostly Cloudy
7:02 AM 71.6°F 69.8°F 94% 30.01 in 10.0 miles West 8.1 mph - N/A   Overcast
7:09 AM 71.6°F 68.0°F 88% 30.02 in 10.0 miles WNW 13.8 mph 21.9 mph 0.00 in Rain Light Rain
7:16 AM 69.8°F 66.2°F 88% 30.02 in 10.0 miles WNW 10.4 mph 21.9 mph 0.00 in   Overcast
7:35 AM 69.8°F 64.4°F 83% 30.04 in 10.0 miles NW 11.5 mph 24.2 mph 0.00 in   Overcast
7:44 AM 68.0°F 62.6°F 83% 30.05 in 10.0 miles NW 12.7 mph 20.7 mph 0.00 in   Overcast
7:53 AM 68.0°F 62.1°F 81% 30.05 in 10.0 miles NW 15.0 mph 19.6 mph 0.00 in   Overcast
8:53 AM 66.0°F 55.9°F 70% 30.09 in 10.0 miles NNW 11.5 mph 19.6 mph N/A   Overcast
9:53 AM 66.0°F 53.1°F 63% 30.12 in 10.0 miles NW 15.0 mph 26.5 mph N/A   Mostly Cloudy
10:53 AM 66.0°F 48.9°F 54% 30.11 in 10.0 miles NNW 13.8 mph 23.0 mph N/A   Mostly Cloudy
11:53 AM 66.0°F 42.1°F 42% 30.11 in 10.0 miles NNW 12.7 mph 24.2 mph N/A   Mostly Cloudy
12:53 PM 66.0°F 44.1°F 45% 30.08 in 10.0 miles NNW 10.4 mph 23.0 mph N/A   Scattered Clouds
1:53 PM 66.9°F 43.0°F 42% 30.06 in 10.0 miles NW 9.2 mph 24.2 mph N/A   Scattered Clouds
2:53 PM 68.0°F 39.9°F 36% 30.06 in 10.0 miles NNW 11.5 mph 24.2 mph N/A   Scattered Clouds
3:53 PM 66.9°F 37.9°F 34% 30.07 in 10.0 miles NW 10.4 mph 18.4 mph N/A   Scattered Clouds
4:53 PM 66.9°F 37.9°F 34% 30.08 in 10.0 miles NW 9.2 mph 18.4 mph N/A   Partly Cloudy
5:53 PM 64.0°F 36.0°F 35% 30.10 in 10.0 miles NW 6.9 mph - N/A   Partly Cloudy
6:53 PM 62.1°F 37.9°F 41% 30.12 in 10.0 miles NW 9.2 mph - N/A   Clear
7:53 PM 61.0°F 39.0°F 44% 30.13 in 10.0 miles NW 6.9 mph - N/A   Clear
8:53 PM 59.0°F 34.0°F 39% 30.16 in 10.0 miles NW 10.4 mph 21.9 mph N/A   Clear
9:53 PM 57.0°F 37.9°F 49% 30.18 in 10.0 miles NW 10.4 mph 23.0 mph N/A   Clear
10:53 PM 54.0°F 39.0°F 57% 30.18 in 10.0 miles NW 9.2 mph 17.3 mph N/A   Clear
11:53 PM 53.1°F 37.9°F 57% 30.19 in 10.0 miles NW 12.7 mph 21.9 mph N/A   Clear